Weather reports worldwide

Advertisment
Barranda, Spain (8365): temperature & dewpoint: 14.10.2018 16:00:00 - 20.10.2018 16:00:00 (CEST)Barranda, Spain (8365): wind speed & gusts: 14.10.2018 16:00:00 - 20.10.2018 16:00:00 (CEST)Barranda, Spain (8365): wind direction: 14.10.2018 16:00:00 - 20.10.2018 16:00:00 (CEST)Barranda, Spain (8365): reduced air pressure: 14.10.2018 16:00:00 - 20.10.2018 16:00:00 (CEST)Barranda, Spain (8365): visibility: 14.10.2018 16:00:00 - 20.10.2018 16:00:00 (CEST)Barranda, Spain (8365): sunshine duration: 14.10.2018 16:00:00 - 20.10.2018 16:00:00 (CEST)Barranda, Spain (8365): precipitation: 14.10.2018 16:00:00 - 20.10.2018 16:00:00 (CEST)
Date & Time tt [°C] td [°C] ff [km/h] ff [kn] fx [km/h] fx [kn] dd ppp [hPa] vv [km] sd [min] rr [mm]
20.10.2018 16:00:00 - - - - - - - - - - -
20.10.2018 15:00:00 16,1 12,2 7 4 16 9 NE 1018,8 20 0 0,0
20.10.2018 14:00:00 16,1 12,8 9 5 22 12 NE 1019,1 20 0 -
20.10.2018 13:00:00 15,5 12,4 6 3 18 10 NNE 1019,7 20 1 0,0
20.10.2018 12:00:00 14,8 13,2 7 4 10 5 E 1019,8 12 2 0,0
20.10.2018 11:00:00 13,6 12,1 6 3 13 7 ESE 1019,8 6 0 0,8
20.10.2018 10:00:00 13,2 11,8 4 2 14 8 SW 1019,3 9 0 0,4
20.10.2018 09:00:00 13,1 11,7 3 2 11 6 WNW 1018,6 14 0 0,0
20.10.2018 08:00:00 13,1 11,7 6 4 17 9 NNE 1017,6 13 0 -
20.10.2018 07:00:00 12,5 11,1 5 3 13 7 NNE 1017,7 18 0 0,0
20.10.2018 06:00:00 11,9 9,9 2 1 7 4 N 1018,2 5 0 0,4
20.10.2018 05:00:00 11,7 9,3 4 2 11 6 WSW 1018,5 20 0 0,0
20.10.2018 04:00:00 11,5 9,6 3 2 8 4 WSW 1018,4 20 0 0,0
20.10.2018 03:00:00 11,2 9,7 1 1 9 5 NW 1018,0 20 0 0,0
20.10.2018 02:00:00 9,8 8,4 4 2 6 3 WNW 1018,7 20 0 -
20.10.2018 01:00:00 9,0 7,3 3 2 10 5 W 1018,6 20 0 0,0
20.10.2018 00:00:00 9,4 7,3 3 2 7 4 WNW 1018,0 20 0 0,0
19.10.2018 23:00:00 10,5 7,7 3 2 10 5 W 1017,3 20 0 0,0
19.10.2018 22:00:00 12,3 7,6 6 3 11 6 NW 1016,0 20 0 0,0
19.10.2018 21:00:00 12,1 8,9 6 3 9 5 NW 1015,5 20 0 0,0
19.10.2018 20:00:00 - - - - - - - - - - -
19.10.2018 19:00:00 17,3 8,7 4 2 15 8 SW 1012,3 20 0 0,0
19.10.2018 18:00:00 18,3 9,0 4 2 6 3 NW 1011,6 20 2 0,0
19.10.2018 17:00:00 17,9 7,6 2 1 7 4 ENE 1011,2 20 0 0,0
19.10.2018 16:00:00 18,5 7,6 4 2 15 8 SSE 1011,2 20 28 0,0
19.10.2018 15:00:00 17,3 7,8 8 4 16 9 SSW 1011,8 20 19 0,0
19.10.2018 14:00:00 16,5 7,4 11 6 18 10 SW 1012,7 20 32 -
19.10.2018 13:00:00 17,4 6,8 10 6 19 11 SW 1012,4 20 58 0,0
19.10.2018 12:00:00 16,4 6,5 11 6 17 9 WSW 1012,4 20 34 0,0
19.10.2018 11:00:00 14,1 10,9 5 3 9 5 SW 1012,6 20 26 0,0
19.10.2018 10:00:00 12,9 11,7 1 1 7 4 W 1012,4 18 0 0,0
19.10.2018 09:00:00 12,0 10,8 4 2 14 7 SSW 1011,9 17 0 0,2
19.10.2018 08:00:00 11,8 10,6 9 5 13 7 W 1011,8 15 0 -
19.10.2018 07:00:00 11,3 10,2 3 2 7 4 NE 1011,4 6 0 0,0
19.10.2018 06:00:00 11,4 10,3 4 2 7 4 WSW 1011,4 12 0 0,0
19.10.2018 05:00:00 11,8 10,6 3 2 9 5 W 1010,9 11 0 0,0
19.10.2018 04:00:00 11,8 10,5 2 1 10 5 W 1010,8 10 0 0,0
19.10.2018 03:00:00 11,8 10,5 4 2 9 5 WSW 1010,4 8 0 0,0
19.10.2018 02:00:00 12,6 11,3 5 3 11 6 S 1010,8 16 0 -
19.10.2018 01:00:00 12,6 11,2 6 3 10 5 W 1010,4 20 0 0,0
19.10.2018 00:00:00 12,8 11,3 4 2 6 4 S 1010,5 20 0 0,0
18.10.2018 23:00:00 13,1 11,4 6 3 10 5 S 1010,5 20 0 0,2
18.10.2018 22:00:00 13,2 11,6 5 3 10 6 NE 1010,2 20 0 0,2
18.10.2018 21:00:00 13,4 11,7 6 3 14 8 W 1010,4 7 0 3,8
18.10.2018 20:00:00 14,3 11,2 9 5 30 16 ENE 1009,4 12 0 -
18.10.2018 19:00:00 17,1 10,3 14 8 26 14 NE 1007,0 20 0 0,0
18.10.2018 18:00:00 18,7 10,8 6 4 24 13 NE 1006,5 20 4 0,0
18.10.2018 17:00:00 19,5 9,0 10 5 24 13 E 1006,2 20 5 0,0
18.10.2018 16:00:00 19,4 9,3 10 6 27 14 ENE 1006,8 20 18 0,0
18.10.2018 15:00:00 18,4 9,7 9 5 22 12 ENE 1007,5 20 35 0,0
18.10.2018 14:00:00 18,1 9,7 5 3 20 11 NE 1008,4 20 35 -
18.10.2018 13:00:00 17,8 10,2 8 4 14 8 NE 1009,5 20 11 0,0
18.10.2018 12:00:00 16,5 10,8 6 3 14 7 NE 1009,9 20 33 0,0
18.10.2018 11:00:00 15,1 10,0 4 2 7 4 SE 1010,2 20 20 0,0
18.10.2018 10:00:00 14,7 10,3 2 1 10 5 SSE 1010,4 20 60 0,0
18.10.2018 09:00:00 10,4 8,8 2 1 11 6 W 1011,7 20 20 0,0
18.10.2018 08:00:00 9,2 7,3 4 2 15 8 W 1011,9 19 0 -
18.10.2018 07:00:00 9,0 7,4 6 4 12 6 W 1012,3 20 0 0,0
18.10.2018 06:00:00 9,3 7,3 4 2 13 7 W 1012,3 20 0 0,0
18.10.2018 05:00:00 - - - - - - - - - - -
18.10.2018 04:00:00 10,5 7,1 9 5 14 8 W 1013,1 20 0 0,0
18.10.2018 03:00:00 9,8 7,3 6 3 10 5 WSW 1013,9 20 0 0,0
18.10.2018 02:00:00 10,6 7,3 3 2 13 7 WSW 1014,2 20 0 -
18.10.2018 01:00:00 11,8 7,6 8 5 13 7 W 1014,8 20 0 0,0
18.10.2018 00:00:00 12,3 7,8 4 2 14 8 W 1014,8 20 0 0,0
17.10.2018 23:00:00 14,0 9,0 4 2 12 6 W 1014,4 20 0 0,0
17.10.2018 22:00:00 15,8 9,4 7 4 20 11 W 1013,6 20 0 0,0
17.10.2018 21:00:00 15,6 7,4 9 5 16 9 W 1013,9 20 0 0,0
17.10.2018 20:00:00 15,9 7,4 9 5 14 8 NW 1013,2 20 0 -
17.10.2018 19:00:00 18,0 9,0 5 3 12 7 NW 1012,3 20 0 0,0
17.10.2018 18:00:00 20,8 6,4 7 4 19 10 ENE 1011,9 20 4 0,0
17.10.2018 17:00:00 21,1 6,2 9 5 28 15 NE 1012,2 20 6 0,0
17.10.2018 16:00:00 21,2 6,7 10 6 25 14 ENE 1012,4 20 34 0,0
17.10.2018 15:00:00 20,7 7,0 11 6 27 15 ENE 1013,3 20 45 0,0
17.10.2018 14:00:00 20,7 7,0 15 8 28 15 ENE 1014,4 20 59 -
17.10.2018 13:00:00 20,3 8,3 13 7 27 14 ENE 1015,4 20 60 0,0
17.10.2018 12:00:00 19,1 9,3 13 7 25 13 ENE 1015,9 20 60 0,0
17.10.2018 11:00:00 18,3 10,2 13 7 21 11 ENE 1016,4 20 60 0,0
17.10.2018 10:00:00 15,7 10,6 4 2 7 4 S 1017,1 20 60 0,0
17.10.2018 09:00:00 9,6 8,3 3 2 5 3 W 1018,7 20 22 0,0
17.10.2018 08:00:00 9,3 7,6 1 1 8 4 ESE 1018,5 16 0 -
17.10.2018 07:00:00 10,0 7,6 2 1 12 7 N 1018,2 20 0 0,0
17.10.2018 06:00:00 10,0 8,1 1 1 9 5 S 1017,8 20 0 0,0
17.10.2018 05:00:00 11,1 8,7 1 1 10 5 NW 1017,6 20 0 0,0
17.10.2018 04:00:00 11,8 9,0 7 4 14 7 WSW 1017,9 20 0 0,0
17.10.2018 03:00:00 11,9 9,4 3 2 7 4 W 1018,1 20 0 0,0
17.10.2018 02:00:00 12,5 9,9 4 2 7 4 WSW 1018,0 20 0 -
17.10.2018 01:00:00 12,6 9,8 5 3 8 4 WSW 1018,0 20 0 0,0
17.10.2018 00:00:00 13,6 9,7 2 1 12 7 ENE 1017,8 20 0 0,0
16.10.2018 23:00:00 15,3 10,3 7 4 19 10 N 1017,2 20 0 0,0
16.10.2018 22:00:00 15,8 9,0 6 4 17 9 NNE 1016,6 20 0 0,0
16.10.2018 21:00:00 16,8 9,2 7 4 22 12 NNE 1015,9 20 0 0,0
16.10.2018 20:00:00 17,6 8,4 7 4 19 10 NNE 1014,6 20 0 -
16.10.2018 19:00:00 17,9 9,6 3 2 13 7 N 1013,5 20 1 0,0
16.10.2018 18:00:00 19,3 7,7 6 3 23 13 NE 1012,9 18 5 0,0
16.10.2018 17:00:00 20,7 7,0 10 5 25 13 ENE 1012,3 20 5 0,0
16.10.2018 16:00:00 20,5 7,1 12 6 22 12 E 1012,2 20 29 0,0
16.10.2018 15:00:00 20,0 8,0 11 6 25 13 ENE 1012,3 20 58 0,0
16.10.2018 14:00:00 19,3 8,7 10 6 24 13 NE 1012,8 20 60 -
16.10.2018 13:00:00 18,2 9,6 13 7 26 14 ENE 1013,4 20 60 0,0
16.10.2018 12:00:00 17,4 10,0 12 7 23 12 E 1013,0 20 60 0,0
16.10.2018 11:00:00 15,1 9,9 3 2 9 5 ESE 1013,7 20 60 0,0
16.10.2018 10:00:00 11,9 10,6 4 2 8 5 WSW 1014,2 20 6 0,0
16.10.2018 09:00:00 10,3 8,9 4 2 5 3 WSW 1014,0 20 0 0,0
16.10.2018 08:00:00 10,6 9,2 4 2 6 3 WSW 1013,4 17 0 -
16.10.2018 07:00:00 10,9 9,4 2 1 5 3 WNW 1012,9 20 0 0,0
16.10.2018 06:00:00 11,0 9,4 3 2 6 3 S 1012,5 20 0 0,0
16.10.2018 05:00:00 11,1 9,3 4 2 9 5 SSW 1012,2 20 0 0,0
16.10.2018 04:00:00 11,6 9,8 3 1 6 3 NW 1012,3 20 0 0,4
16.10.2018 03:00:00 11,6 9,6 3 2 5 3 NW 1012,8 20 0 0,2
16.10.2018 02:00:00 12,4 8,3 3 2 5 3 NW 1012,4 20 0 -
16.10.2018 01:00:00 12,7 7,4 3 2 8 4 NE 1012,4 20 0 0,0
16.10.2018 00:00:00 12,8 7,0 5 3 14 8 N 1012,4 20 0 0,0
15.10.2018 23:00:00 12,6 7,3 7 4 11 6 W 1012,1 20 0 0,0
15.10.2018 22:00:00 14,7 6,5 5 3 8 4 W 1011,2 20 0 0,0
15.10.2018 21:00:00 13,9 7,4 3 2 9 5 NW 1011,2 20 0 0,0
15.10.2018 20:00:00 15,7 6,7 4 2 12 6 NNW 1010,2 20 0 -
15.10.2018 19:00:00 18,3 5,1 6 3 19 11 NNE 1009,4 20 0 0,0
15.10.2018 18:00:00 19,9 3,2 6 4 18 10 S 1008,6 20 9 0,0
15.10.2018 17:00:00 21,4 3,9 9 5 26 14 S 1007,5 20 0 0,0
15.10.2018 16:00:00 20,9 3,0 11 6 26 14 S 1007,5 20 25 0,0
15.10.2018 15:00:00 21,5 4,5 10 5 28 15 S 1008,0 20 60 0,0
15.10.2018 14:00:00 - - - - - - - - - - -
15.10.2018 13:00:00 18,9 3,4 14 8 24 13 SW 1010,2 20 60 0,0
15.10.2018 12:00:00 17,5 1,9 11 6 26 14 WSW 1011,2 20 53 0,0
15.10.2018 11:00:00 15,4 3,6 11 6 24 13 WSW 1011,8 20 57 0,0
15.10.2018 10:00:00 14,2 5,6 10 5 21 11 SW 1011,9 20 60 0,0
15.10.2018 09:00:00 10,0 5,5 8 4 11 6 WSW 1012,4 20 3 0,0
15.10.2018 08:00:00 10,4 5,8 4 2 10 5 W 1011,7 20 0 -
15.10.2018 07:00:00 11,7 5,1 5 3 13 7 SSW 1011,0 20 0 0,0
15.10.2018 06:00:00 12,1 4,8 8 5 16 8 WSW 1010,6 20 0 0,0
15.10.2018 05:00:00 12,6 4,3 11 6 32 17 WSW 1010,3 20 0 0,0
15.10.2018 04:00:00 13,8 3,2 16 9 42 23 W 1010,1 20 0 0,0
15.10.2018 03:00:00 14,1 2,7 13 7 49 26 WNW 1009,6 20 0 0,0
15.10.2018 02:00:00 14,1 2,3 21 11 42 23 W 1009,5 20 0 -
15.10.2018 01:00:00 13,9 2,1 14 7 35 19 W 1010,3 20 0 0,0
15.10.2018 00:00:00 13,4 1,7 7 4 36 19 W 1010,5 20 0 0,0
14.10.2018 23:00:00 13,9 1,5 9 5 34 18 W 1010,0 20 0 0,0
14.10.2018 22:00:00 14,5 0,6 12 6 45 24 SW 1009,4 20 0 0,0
14.10.2018 21:00:00 14,8 3,0 16 9 37 20 W 1009,1 20 0 0,0
14.10.2018 20:00:00 15,2 3,4 18 10 37 20 WSW 1008,7 20 0 -
14.10.2018 19:00:00 16,4 5,0 6 3 42 23 WSW 1006,9 20 0 0,0
14.10.2018 18:00:00 18,1 4,6 17 9 39 21 W 1005,9 20 0 0,0
14.10.2018 17:00:00 20,4 9,7 13 7 37 20 WSW 1004,9 20 0 0,0
14.10.2018 16:00:00 21,7 11,1 16 9 37 20 WSW 1004,8 20 15 0,0

tt = temperature
td = dewpoint
ff = wind speed
fx = gusts
dd = wind direction
ppp = reduced air pressure
vv = visibility
sd = sunshine duration
rr = precipitation

Next stations